Time[GMT],current_speed[cm/s](2m),current_direction[angular_degrees](2m),temperature[C](2m),current_u[cm/s](2m),current_v[cm/s](2m)
2012-04-12 02:00,57.19,247.7,4.32,-52.90,-21.74
2012-04-12 03:00,79.48,245.5,4.35,-72.36,-32.90
2012-04-12 04:00,107.64,278.6,4.19,-106.43,16.09
2012-04-12 05:00,102.65,321.5,4.48,-63.91,80.33
2012-04-12 06:00,75.67,336.3,4.61,-30.46,69.27
2012-04-12 07:00,62.18,346.8,4.55,-14.23,60.53
2012-04-12 08:00,30.50,31.8,4.55,16.06,25.93
2012-04-12 09:00,34.32,106.0,4.42,32.99,-9.44
2012-04-12 10:00,41.65,149.9,4.48,20.88,-36.04
2012-04-12 11:00,56.61,160.1,4.45,19.26,-53.23
2012-04-12 12:00,62.18,167.1,4.39,13.84,-60.62
2012-04-12 13:00,62.18,170.3,4.29,10.47,-61.29
2012-04-12 14:00,40.48,194.6,4.39,-10.18,-39.17
2012-04-12 15:00,39.89,225.2,4.45,-28.28,-28.13
2012-04-12 16:00,46.05,248.4,4.35,-42.80,-16.98
2012-04-12 17:00,65.11,265.9,4.48,-64.95,-4.61
2012-04-12 18:00,54.26,288.1,4.58,-51.58,16.85
2012-04-12 19:00,35.78,288.1,4.71,-34.01,11.11
2012-04-12 20:00,14.08,292.7,4.87,-12.99,5.42
2012-04-12 21:00,8.21,131.6,4.87,6.14,-5.46
2012-04-12 22:00,33.73,171.7,4.74,4.86,-33.38
2012-04-12 23:00,37.25,165.7,4.65,9.18,-36.10
2012-04-13 00:00,45.46,165.0,4.48,11.74,-43.92
2012-04-13 01:00,53.38,171.7,4.52,7.69,-52.82
2012-04-13 02:00,61.89,166.4,4.42,14.51,-60.16
2012-04-13 03:00,39.89,194.6,4.45,-10.03,-38.61
2012-04-13 04:00,45.75,230.1,4.48,-35.09,-29.36
2012-04-13 05:00,68.63,276.5,4.48,-68.19,7.76
2012-04-13 06:00,78.90,307.1,4.48,-62.95,47.57
2012-04-13 07:00,83.30,315.5,4.48,-58.37,59.43
2012-04-13 08:00,51.91,329.6,4.42,-26.29,44.77
2012-04-13 09:00,22.29,15.3,4.45,5.86,21.51
2012-04-13 10:00,29.62,65.9,4.55,27.04,12.11
2012-04-13 11:00,21.70,109.8,4.55,20.42,-7.36
2012-04-13 12:00,36.96,132.7,4.58,27.17,-25.05
2012-04-13 13:00,46.93,148.2,4.61,24.76,-39.86
2012-04-13 14:00,39.60,181.2,4.68,-0.83,-39.59
2012-04-13 15:00,33.73,212.8,4.61,-18.30,-28.34
2012-04-13 16:00,33.44,230.8,4.74,-25.90,-21.14
2012-04-13 17:00,49.27,259.3,4.84,-48.41,-9.18
2012-04-13 18:00,63.65,289.9,4.91,-59.86,21.61
2012-04-13 19:00,54.26,330.3,4.65,-26.90,47.12
2012-04-13 20:00,28.74,345.7,4.84,-7.09,27.85
2012-04-13 21:00,12.91,82.1,4.91,12.78,1.78
2012-04-13 22:00,27.57,116.2,4.91,24.75,-12.15
2012-04-13 23:00,39.01,137.6,4.68,26.30,-28.81
2012-04-14 00:00,41.06,160.8,4.65,13.50,-38.78
2012-04-14 01:00,57.49,146.7,4.58,31.52,-48.07
2012-04-14 02:00,63.94,148.2,4.74,33.74,-54.32
2012-04-14 03:00,53.97,155.5,4.81,22.35,-49.12
2012-04-14 04:00,30.80,177.7,4.87,1.24,-30.77
2012-04-14 05:00,46.05,249.4,4.65,-43.11,-16.19
2012-04-14 06:00,72.74,288.1,4.55,-69.14,22.59
2012-04-14 07:00,77.72,297.2,4.55,-69.11,35.57
2012-04-14 08:00,62.47,311.6,4.45,-46.68,41.52
2012-04-14 09:00,32.56,327.5,4.42,-17.51,27.45
2012-04-14 10:00,7.33,62.4,4.39,6.50,3.40
2012-04-14 11:00,26.40,127.4,4.45,20.97,-16.04
2012-04-14 12:00,36.08,155.9,4.45,14.74,-32.93
2012-04-14 13:00,40.77,162.9,4.42,11.97,-38.97
2012-04-14 14:00,48.10,141.5,4.58,29.96,-37.63
2012-04-14 15:00,36.37,140.1,4.74,23.34,-27.89
2012-04-14 16:00,16.72,187.2,4.84,-2.09,-16.59
2012-04-14 17:00,19.06,262.8,4.91,-18.91,-2.40
2012-04-14 18:00,38.13,281.8,4.91,-37.33,7.77
2012-04-14 19:00,39.60,280.7,4.84,-38.91,7.36
2012-04-14 20:00,43.12,276.1,4.81,-42.87,4.61
2012-04-14 21:00,26.98,242.4,5.13,-23.91,-12.51
2012-04-14 22:00,26.10,202.7,5.10,-10.05,-24.09
2012-04-14 23:00,44.58,169.3,5.04,8.31,-43.80
2012-04-15 00:00,48.10,180.5,4.97,-0.42,-48.10
2012-04-15 01:00,47.22,192.5,4.81,-10.19,-46.11
2012-04-15 02:00,44.58,199.1,4.84,-14.62,-42.12
2012-04-15 03:00,39.60,187.9,4.81,-5.43,-39.22
2012-04-15 04:00,26.98,191.1,4.74,-5.17,-26.48
2012-04-15 05:00,26.98,218.8,4.74,-16.92,-21.02
2012-04-15 06:00,38.42,255.4,4.74,-37.18,-9.69
2012-04-15 07:00,78.02,309.9,4.94,-59.86,50.04
2012-04-15 08:00,105.00,317.6,5.00,-70.77,77.57
2012-04-15 09:00,98.26,327.5,5.91,-52.83,82.84
2012-04-15 10:00,66.58,344.3,5.33,-18.01,64.10
2012-04-15 11:00,48.39,30.4,5.23,24.47,41.75
2012-04-15 12:00,55.43,97.5,5.68,54.96,-7.26
2012-04-15 13:00,34.32,122.5,6.10,28.95,-18.43
2012-04-15 14:00,53.67,158.0,5.75,20.11,-49.77
2012-04-15 15:00,35.20,203.7,5.52,-14.15,-32.23
2012-04-15 16:00,23.76,229.4,5.75,-18.03,-15.47
2012-04-15 17:00,36.37,268.1,5.46,-36.35,-1.24
2012-04-15 18:00,50.15,309.5,6.10,-38.68,31.93
2012-04-15 19:00,68.34,321.5,5.49,-42.55,53.48
2012-04-15 20:00,68.34,314.1,5.42,-49.07,47.57
2012-04-15 21:00,64.23,324.0,5.58,-37.80,51.94
2012-04-15 22:00,52.21,351.3,6.04,-7.86,51.61
2012-04-15 23:00,33.44,356.3,5.71,-2.18,33.37
2012-04-16 00:00,28.16,39.9,5.97,18.05,21.61
2012-04-16 01:00,22.58,127.4,5.75,17.94,-13.72
2012-04-16 02:00,21.70,166.1,5.49,5.22,-21.07
2012-04-16 03:00,21.41,155.2,5.87,8.99,-19.43
2012-04-16 04:00,19.65,195.6,5.65,-5.29,-18.93
2012-04-16 05:00,9.09,184.4,5.49,-0.69,-9.07
2012-04-16 06:00,5.87,260.3,5.46,-5.78,-0.99
2012-04-16 07:00,35.78,306.4,5.75,-28.81,21.22
2012-04-16 08:00,77.72,312.4,4.87,-57.44,52.36
2012-04-16 09:00,94.44,306.7,4.87,-75.70,56.48
2012-04-16 10:00,86.52,324.7,5.36,-50.05,70.58
2012-04-16 11:00,56.90,337.3,5.29,-21.94,52.50
2012-04-16 12:00,28.45,359.8,5.71,-0.11,28.45
2012-04-16 13:00,22.88,93.7,5.84,22.83,-1.46
2012-04-16 14:00,31.09,117.2,5.78,27.65,-14.22
2012-04-16 15:00,25.52,158.4,5.68,9.41,-23.72
2012-04-16 16:00,24.05,192.5,5.62,-5.19,-23.48
2012-04-16 17:00,26.98,244.1,5.71,-24.28,-11.77
2012-04-16 18:00,48.98,289.9,5.81,-46.07,16.63
2012-04-16 19:00,60.13,301.8,5.71,-51.10,31.69
2012-04-16 20:00,95.03,301.5,6.00,-81.07,49.59
2012-04-16 21:00,105.29,313.4,5.65,-76.50,72.36
2012-04-16 22:00,89.46,328.9,5.87,-46.24,76.58
2012-04-16 23:00,68.63,334.2,5.68,-29.92,61.77
2012-04-17 00:00,41.06,13.8,5.97,9.83,39.87
2012-04-17 01:00,25.52,59.9,6.16,22.08,12.80
2012-04-17 02:00,35.49,127.4,6.29,28.19,-21.56
2012-04-17 03:00,47.81,160.8,6.26,15.71,-45.15
2012-04-17 04:00,47.81,167.5,6.04,10.35,-46.67
2012-04-17 05:00,40.18,178.0,5.84,1.37,-40.16
2012-04-17 06:00,26.40,224.5,5.75,-18.49,-18.84
2012-04-17 07:00,41.06,275.8,5.65,-40.85,4.14
2012-04-17 08:00,67.75,287.0,5.36,-64.78,19.85
2012-04-17 09:00,96.79,304.6,5.58,-79.65,54.98
2012-04-17 10:00,85.35,320.8,5.16,-53.95,66.13
2012-04-17 11:00,59.25,334.5,5.71,-25.50,53.48
2012-04-17 12:00,28.74,336.3,5.94,-11.57,26.31
2012-04-17 13:00,13.79,56.7,5.65,11.53,7.56
2012-04-17 14:00,36.96,139.0,5.94,24.24,-27.90
2012-04-17 15:00,46.93,152.4,5.78,21.76,-41.58
2012-04-17 16:00,39.30,166.1,5.78,9.45,-38.15
2012-04-17 17:00,30.50,224.8,5.65,-21.50,-21.64
2012-04-17 18:00,32.26,268.1,5.49,-32.24,-1.10
2012-04-17 19:00,43.12,289.1,5.42,-40.73,14.14
2012-04-17 20:00,52.50,295.5,5.39,-47.40,22.58
2012-04-17 21:00,79.78,299.7,5.46,-69.30,39.52
2012-04-17 22:00,105.00,313.8,5.29,-75.84,72.62
2012-04-17 23:00,90.63,328.2,5.97,-47.79,77.00
2012-04-18 00:00,56.02,344.7,6.13,-14.82,54.02
2012-04-18 01:00,14.66,16.0,6.48,4.03,14.10
2012-04-18 02:00,27.28,122.1,6.55,23.10,-14.51
2012-04-18 03:00,51.91,151.7,6.29,24.63,-45.70
2012-04-18 04:00,52.50,173.8,6.39,5.65,-52.20
2012-04-18 05:00,54.85,185.1,5.55,-4.85,-54.63
2012-04-18 06:00,50.74,200.5,5.23,-17.81,-47.51
2012-04-18 07:00,52.21,217.1,5.33,-31.47,-41.66
2012-04-18 08:00,53.97,243.1,5.52,-48.12,-24.43
2012-04-18 09:00,87.11,276.5,5.58,-86.55,9.84
2012-04-18 10:00,106.17,288.8,5.46,-100.51,34.21
2012-04-18 11:00,99.43,313.1,5.42,-72.65,67.88
2012-04-18 12:00,66.58,314.5,5.49,-47.52,46.63
2012-04-18 13:00,21.12,318.7,5.55,-13.94,15.86
2012-04-18 14:00,22.00,128.8,5.58,17.14,-13.79
2012-04-18 15:00,44.87,164.0,5.42,12.39,-43.13
2012-04-18 16:00,77.14,175.9,5.49,5.47,-76.94
2012-04-18 17:00,68.93,192.1,5.49,-14.45,-67.39
2012-04-18 18:00,64.82,188.6,5.49,-9.68,-64.09
2012-04-18 19:00,55.14,205.5,5.58,-23.71,-49.78
2012-04-18 20:00,51.91,228.3,5.52,-38.77,-34.52
2012-04-18 21:00,65.41,252.9,5.55,-62.53,-19.20
2012-04-18 22:00,89.16,274.7,5.65,-88.86,7.35
2012-04-18 23:00,102.36,303.6,5.55,-85.30,56.59
2012-04-19 00:00,80.36,324.7,5.78,-46.49,65.55
2012-04-19 01:00,40.48,343.3,6.04,-11.66,38.76
2012-04-19 02:00,1.47,323.3,6.16,-0.88,1.18
2012-04-19 03:00,36.37,151.0,6.04,17.65,-31.80
2012-04-19 04:00,54.26,161.2,5.84,17.52,-51.35
2012-04-19 05:00,53.38,171.4,5.75,8.02,-52.77
2012-04-19 06:00,54.55,179.8,5.62,0.19,-54.55
2012-04-19 07:00,47.22,184.7,5.68,-3.89,-47.06
2012-04-19 08:00,39.01,206.9,5.55,-17.63,-34.80
2012-04-19 09:00,47.51,244.8,5.49,-43.01,-20.20
2012-04-19 10:00,68.34,264.9,5.46,-68.07,-6.09
2012-04-19 11:00,87.70,294.1,5.75,-80.07,35.77
2012-04-19 12:00,71.86,311.3,5.65,-53.99,47.42
2012-04-19 13:00,55.43,311.6,6.07,-41.42,36.84
2012-04-19 14:00,27.57,334.2,6.23,-12.02,24.81
2012-04-19 15:00,12.91,101.4,6.26,12.65,-2.55
2012-04-19 16:00,22.29,138.7,6.13,14.72,-16.74
2012-04-19 17:00,26.98,193.2,6.23,-6.14,-26.27
2012-04-19 18:00,34.02,215.7,6.29,-19.84,-27.64
2012-04-19 19:00,25.81,238.5,6.16,-22.01,-13.48
2012-04-19 20:00,26.40,290.2,6.10,-24.77,9.12
2012-04-19 21:00,39.89,305.0,6.04,-32.69,22.86
2012-04-19 22:00,62.18,300.0,5.75,-53.82,31.13
2012-04-19 23:00,104.41,313.4,5.71,-75.86,71.75
2012-04-20 00:00,92.39,322.2,5.55,-56.63,73.00
2012-04-20 01:00,52.79,340.8,5.91,-17.33,49.87
2012-04-20 02:00,22.00,353.5,5.84,-2.51,21.85
2012-04-20 03:00,27.86,128.1,5.91,21.92,-17.20
2012-04-20 04:00,36.96,151.3,5.91,17.74,-32.42
2012-04-20 05:00,51.91,176.6,5.84,3.05,-51.82
2012-04-20 06:00,57.78,175.9,5.33,4.10,-57.63
2012-04-20 07:00,46.34,176.3,5.33,3.00,-46.24
2012-04-20 08:00,38.13,184.7,5.42,-3.14,-38.00
2012-04-20 09:00,35.78,232.2,5.58,-28.27,-21.94
2012-04-20 10:00,41.65,261.7,5.75,-41.21,-6.00
2012-04-20 11:00,91.51,282.1,5.84,-89.47,19.21
2012-04-20 12:00,101.19,294.4,5.65,-92.14,41.83
2012-04-20 13:00,118.49,301.5,5.10,-101.08,61.83
2012-04-20 14:00,87.40,308.1,5.39,-68.75,53.97
2012-04-20 15:00,47.22,312.7,5.52,-34.70,32.03
2012-04-20 16:00,13.20,320.4,5.52,-8.41,10.18
2012-04-20 17:00,10.27,201.6,5.42,-3.78,-9.54
2012-04-20 18:00,13.20,206.9,5.49,-5.97,-11.77
2012-04-20 19:00,17.01,149.2,5.71,8.71,-14.61
2012-04-20 20:00,27.86,127.4,5.87,22.13,-16.93
2012-04-20 21:00,19.65,136.2,6.10,13.60,-14.18
2012-04-20 22:00,11.44,128.1,6.16,9.00,-7.06
2012-04-20 23:00,24.34,294.4,6.04,-22.17,10.06
2012-04-21 00:00,55.14,290.6,5.81,-51.63,19.36
2012-04-21 01:00,62.47,288.8,5.65,-59.14,20.13
2012-04-21 02:00,41.65,273.3,6.45,-41.58,2.42
2012-04-21 03:00,26.98,272.3,6.32,-26.96,1.07
2012-04-21 04:00,14.37,199.5,5.84,-4.79,-13.55
2012-04-21 05:00,42.82,178.0,5.81,1.46,-42.80
2012-04-21 06:00,51.91,192.5,5.71,-11.20,-50.69
2012-04-21 07:00,63.35,196.7,5.84,-18.18,-60.69
2012-04-21 08:00,58.95,203.7,5.75,-23.70,-53.98
2012-04-21 09:00,42.53,223.4,5.58,-29.22,-30.90
2012-04-21 10:00,49.86,253.3,5.62,-47.75,-14.34
2012-04-21 11:00,70.10,270.2,5.68,-70.10,0.20
2012-04-21 12:00,93.86,302.9,5.52,-78.84,50.92
2012-04-21 13:00,79.19,309.2,6.00,-61.38,50.04
2012-04-21 14:00,55.14,297.6,6.65,-48.87,25.53
2012-04-21 15:00,31.68,260.7,6.39,-31.26,-5.14
2012-04-21 16:00,20.82,223.0,7.06,-14.21,-15.22
2012-04-21 17:00,33.14,174.9,6.81,2.96,-33.01
2012-04-21 18:00,46.34,183.7,6.55,-2.96,-46.25
2012-04-21 19:00,49.86,192.1,6.55,-10.46,-48.75
2012-04-21 20:00,46.05,189.6,6.04,-7.71,-45.40
2012-04-21 21:00,40.48,192.5,5.94,-8.73,-39.52
2012-04-21 22:00,40.18,235.4,5.78,-33.06,-22.84
2012-04-21 23:00,47.22,253.6,5.75,-45.31,-13.30
2012-04-22 00:00,98.84,298.3,6.23,-87.04,46.84
2012-04-22 01:00,83.59,289.5,6.42,-78.80,27.90
2012-04-22 02:00,96.20,284.9,7.03,-92.96,24.78
2012-04-22 03:00,68.05,265.6,6.39,-67.84,-5.23
2012-04-22 04:00,41.94,238.9,6.93,-35.90,-21.68
2012-04-22 05:00,48.10,203.7,6.84,-19.34,-44.04
2012-04-22 06:00,61.30,196.3,6.93,-17.23,-58.83
2012-04-22 07:00,55.43,205.8,6.45,-24.14,-49.90
2012-04-22 08:00,49.27,222.7,6.26,-33.41,-36.22
2012-04-22 09:00,47.22,233.2,5.94,-37.83,-28.26
2012-04-22 10:00,40.18,258.2,6.04,-39.33,-8.21
2012-04-22 11:00,48.39,270.2,6.93,-48.39,0.14
2012-04-22 12:00,75.08,279.3,6.10,-74.10,12.14
2012-04-22 13:00,81.54,307.1,6.97,-65.05,49.16
2012-04-22 14:00,68.05,306.0,7.09,-55.03,40.02
2012-04-22 15:00,44.29,333.4,8.11,-19.80,39.62
2012-04-22 16:00,23.17,322.2,8.27,-14.20,18.31
2012-04-22 17:00,23.17,94.4,8.30,23.10,-1.76
2012-04-22 18:00,49.57,174.2,7.25,5.03,-49.31
2012-04-22 19:00,55.14,186.5,6.48,-6.22,-54.79
2012-04-22 20:00,56.61,187.5,6.65,-7.42,-56.12
2012-04-22 21:00,54.85,205.5,6.58,-23.58,-49.52
2012-04-22 22:00,51.62,227.3,6.58,-37.92,-35.03
2012-04-22 23:00,63.06,246.3,6.42,-57.72,-25.40
2012-04-23 00:00,87.11,270.5,6.45,-87.11,0.78
2012-04-23 01:00,119.67,284.9,6.90,-115.63,30.83
2012-04-23 02:00,109.99,292.7,6.97,-101.50,42.38
2012-04-23 03:00,81.24,303.6,7.83,-67.70,44.92
2012-04-23 04:00,58.07,317.3,8.14,-39.40,42.66
2012-04-23 05:00,34.90,4.7,8.37,2.86,34.79
2012-04-23 06:00,39.60,58.8,8.43,33.89,20.48
2012-04-23 07:00,34.02,117.2,8.43,30.26,-15.56
2012-04-23 08:00,48.69,175.2,8.08,4.05,-48.52
2012-04-23 09:00,40.48,184.7,7.92,-3.33,-40.34
2012-04-23 10:00,35.20,232.2,8.11,-27.81,-21.58
2012-04-23 11:00,39.30,275.1,8.21,-39.15,3.48
2012-04-23 12:00,65.99,293.0,7.22,-60.74,25.80
2012-04-23 13:00,86.52,300.7,6.36,-74.36,44.24
2012-04-23 14:00,64.23,300.7,7.60,-55.20,32.84
2012-04-23 15:00,51.62,316.2,8.34,-35.72,37.27
2012-04-23 16:00,23.17,314.5,8.43,-16.54,16.23
2012-04-23 17:00,3.23,3.3,8.43,0.19,3.22
2012-04-23 18:00,8.80,120.4,8.46,7.59,-4.45
2012-04-23 19:00,11.15,165.4,8.43,2.81,-10.78
2012-04-23 20:00,32.85,186.5,7.95,-3.71,-32.64
2012-04-23 21:00,32.26,209.7,8.05,-15.98,-28.03
2012-04-23 22:00,30.80,234.3,8.05,-25.01,-17.97
2012-04-23 23:00,31.68,300.4,8.27,-27.32,16.03
2012-04-24 00:00,60.71,294.8,8.53,-55.13,25.44
2012-04-24 01:00,87.11,295.5,8.11,-78.64,37.47
2012-04-24 02:00,82.12,301.5,7.92,-70.06,42.85
2012-04-24 03:00,59.25,310.2,8.27,-45.22,38.27
2012-04-24 04:00,38.42,304.3,8.46,-31.75,21.63
2012-04-24 05:00,16.42,21.2,8.49,5.95,15.31
2012-04-24 06:00,17.30,58.5,8.49,14.75,9.04
2012-04-24 07:00,17.30,76.1,8.46,16.80,4.16
2012-04-24 08:00,17.30,125.7,8.37,14.06,-10.09
2012-04-24 09:00,25.52,146.7,8.37,13.99,-21.34
2012-04-24 10:00,15.84,170.3,8.43,2.67,-15.61
2012-04-24 11:00,7.33,241.7,8.14,-6.45,-3.48
2012-04-24 12:00,5.57,16.0,8.24,1.53,5.36
2012-04-24 13:00,34.32,279.7,8.43,-33.83,5.75
2012-04-24 14:00,26.40,268.8,8.59,-26.39,-0.57
2012-04-24 15:00,34.02,258.6,8.72,-33.35,-6.75
2012-04-24 16:00,22.58,258.2,8.72,-22.11,-4.62
2012-04-24 17:00,34.02,192.5,9.16,-7.34,-33.22
2012-04-24 18:00,30.80,182.6,9.25,-1.40,-30.76
2012-04-24 19:00,38.42,183.0,9.16,-1.99,-38.37
2012-04-24 20:00,34.61,192.1,9.06,-7.26,-33.84
2012-04-24 21:00,33.44,178.7,9.10,0.73,-33.43
2012-04-24 22:00,27.28,186.1,9.16,-2.91,-27.12
2012-04-24 23:00,15.84,227.3,9.03,-11.63,-10.75
2012-04-25 00:00,19.94,264.5,9.03,-19.85,-1.90
2012-04-25 01:00,39.89,292.7,9.00,-36.81,15.37
2012-04-25 02:00,73.62,306.0,8.84,-59.54,43.30
2012-04-25 03:00,50.45,313.4,8.94,-36.65,34.67
2012-04-25 04:00,46.93,293.4,8.84,-43.08,18.61
2012-04-25 05:00,28.16,309.2,8.84,-21.82,17.79
2012-04-25 06:00,13.20,32.8,8.87,7.16,11.09
2012-04-25 07:00,18.18,110.9,8.78,16.99,-6.48
2012-04-25 08:00,26.10,147.5,8.81,14.04,-22.00
2012-04-25 09:00,19.94,159.4,8.81,7.02,-18.67
2012-04-25 10:00,16.72,183.0,8.78,-0.86,-16.70
2012-04-25 11:00,10.27,223.7,8.72,-7.10,-7.42
2012-04-25 12:00,23.17,311.6,8.68,-17.31,15.40
2012-04-25 13:00,40.18,317.6,8.78,-27.08,29.69
2012-04-25 14:00,40.48,321.8,8.81,-25.01,31.83
2012-04-25 15:00,73.32,313.8,8.37,-52.96,50.71
2012-04-25 16:00,85.94,325.4,8.34,-48.85,70.71
2012-04-25 17:00,63.65,337.7,8.14,-24.18,58.87
2012-04-25 18:00,41.06,5.4,8.21,3.87,40.88
2012-04-25 19:00,26.40,70.1,8.18,24.82,8.98
2012-04-25 20:00,33.73,107.4,8.40,32.19,-10.07
2012-04-25 21:00,35.49,129.9,8.49,27.24,-22.75
2012-04-25 22:00,35.20,153.4,8.46,15.74,-31.48
2012-04-25 23:00,36.66,173.5,8.53,4.17,-36.42
2012-04-26 00:00,22.29,211.4,8.53,-11.63,-19.02
2012-04-26 01:00,41.36,261.7,8.21,-40.92,-5.95
2012-04-26 02:00,59.25,277.2,7.99,-58.78,7.42
2012-04-26 03:00,70.10,284.2,8.14,-67.95,17.22
2012-04-26 04:00,68.93,300.4,8.11,-59.45,34.88
2012-04-26 05:00,71.86,320.8,8.05,-45.43,55.68
2012-04-26 06:00,49.57,348.5,7.99,-9.86,48.58
2012-04-26 07:00,36.37,35.6,7.76,21.19,29.56
2012-04-26 08:00,34.61,69.0,7.67,32.32,12.38
2012-04-26 09:00,27.28,92.3,7.64,27.26,-1.07
2012-04-26 10:00,29.04,103.5,7.60,28.23,-6.78
2012-04-26 11:00,31.68,94.4,7.67,31.58,-2.41
2012-04-26 12:00,31.97,100.3,7.79,31.45,-5.74
2012-04-26 13:00,17.30,122.5,7.99,14.60,-9.29
2012-04-26 14:00,8.51,278.2,8.02,-8.42,1.22
2012-04-26 15:00,35.78,278.2,8.14,-35.41,5.13
2012-04-26 16:00,46.63,270.5,7.99,-46.63,0.42
2012-04-26 17:00,85.94,306.7,7.54,-68.88,51.39
2012-04-26 18:00,35.78,346.4,8.34,-8.40,34.78
2012-04-26 19:00,20.53,33.5,8.11,11.34,17.11
2012-04-26 20:00,24.05,98.6,8.24,23.78,-3.59
2012-04-26 21:00,26.98,114.1,8.21,24.64,-11.00
2012-04-26 22:00,29.62,150.6,8.27,14.53,-25.81
2012-04-26 23:00,30.21,180.9,8.30,-0.45,-30.21
2012-04-27 00:00,20.53,181.9,8.34,-0.68,-20.52
2012-04-27 01:00,1.17,172.8,8.34,0.15,-1.16
2012-04-27 02:00,19.36,288.8,8.37,-18.33,6.24
2012-04-27 03:00,50.15,290.2,8.34,-47.07,17.32
2012-04-27 04:00,117.61,296.5,8.21,-105.23,52.53
2012-04-27 05:00,89.75,309.9,8.72,-68.86,57.56
2012-04-27 06:00,46.93,326.8,8.53,-25.72,39.25
2012-04-27 07:00,36.66,334.2,8.53,-15.98,32.99
2012-04-27 08:00,28.16,0.5,8.56,0.24,28.16
2012-04-27 09:00,32.56,50.1,8.56,24.96,20.90
2012-04-27 10:00,30.80,53.9,8.56,24.89,18.13
2012-04-27 11:00,52.79,65.9,8.49,48.18,21.57
2012-04-27 12:00,67.75,75.0,8.21,65.45,17.51
2012-04-27 13:00,59.54,91.2,8.11,59.53,-1.24
2012-04-27 14:00,37.25,96.8,8.24,36.99,-4.42
2012-04-27 15:00,20.24,92.6,8.30,20.22,-0.92
2012-04-27 16:00,14.96,247.7,8.40,-13.84,-5.69
2012-04-27 17:00,14.66,256.8,8.40,-14.28,-3.35
2012-04-27 18:00,17.01,229.7,8.43,-12.98,-11.00
2012-04-27 19:00,22.88,171.0,8.53,3.58,-22.60
2012-04-27 20:00,30.21,170.7,8.56,4.90,-29.81
2012-04-27 21:00,34.61,157.3,8.59,13.36,-31.93
2012-04-27 22:00,29.62,168.9,8.62,5.70,-29.07
2012-04-27 23:00,36.66,153.1,8.68,16.60,-32.69
2012-04-28 00:00,22.58,177.7,8.68,0.91,-22.57
2012-04-28 01:00,17.60,183.7,8.62,-1.13,-17.56
2012-04-28 02:00,10.85,206.2,8.65,-4.79,-9.74
2012-04-28 03:00,23.17,289.5,8.68,-21.84,7.73
2012-04-28 04:00,53.97,286.0,8.65,-51.88,14.86
2012-04-28 05:00,73.91,302.2,8.59,-62.57,39.34
2012-04-28 06:00,56.90,300.4,8.02,-49.08,28.79
2012-04-28 07:00,38.72,352.0,8.56,-5.36,38.34
2012-04-28 08:00,23.17,59.2,8.49,19.90,11.86
2012-04-28 09:00,32.56,98.9,8.43,32.16,-5.05
2012-04-28 10:00,35.78,121.1,8.43,30.65,-18.47
2012-04-28 11:00,42.24,150.3,8.46,20.95,-36.67
2012-04-28 12:00,40.77,155.9,7.86,16.65,-37.21
2012-04-28 13:00,32.26,177.3,7.35,1.50,-32.23
2012-04-28 14:00,19.06,199.1,7.70,-6.25,-18.01
2012-04-28 15:00,12.03,265.6,7.83,-11.99,-0.92
2012-04-28 16:00,30.80,285.6,7.57,-29.66,8.30
2012-04-28 17:00,50.15,283.5,7.86,-48.76,11.73
2012-04-28 18:00,80.36,296.5,6.26,-71.90,35.90
2012-04-28 19:00,56.02,326.1,6.52,-31.27,46.48
2012-04-28 20:00,33.73,15.6,7.09,9.07,32.49
2012-04-28 21:00,43.41,81.4,7.54,42.91,6.53
2012-04-28 22:00,43.70,102.1,7.70,42.73,-9.16
2012-04-28 23:00,41.36,109.5,8.02,38.99,-13.79
2012-04-29 00:00,49.27,124.6,7.92,40.56,-27.98
2012-04-29 01:00,43.99,148.5,7.83,22.98,-37.51
2012-04-29 02:00,35.49,182.3,6.45,-1.40,-35.46
2012-04-29 03:00,28.74,217.4,6.16,-17.47,-22.83
2012-04-29 04:00,70.98,261.4,6.00,-70.18,-10.65
2012-04-29 05:00,94.44,287.4,5.94,-90.13,28.22
2012-04-29 06:00,90.04,299.3,6.04,-78.49,44.12
2012-04-29 07:00,82.12,315.5,6.32,-57.54,58.59
2012-04-29 08:00,58.07,344.7,6.74,-15.36,56.00
2012-04-29 09:00,52.79,23.0,7.41,20.62,48.60
2012-04-29 10:00,48.39,44.1,8.14,33.67,34.76
2012-04-29 11:00,56.90,66.9,8.14,52.35,22.29
2012-04-29 12:00,51.03,86.6,8.34,50.95,3.00
2012-04-29 13:00,50.15,99.3,8.40,49.50,-8.09
2012-04-29 14:00,49.57,104.6,8.40,47.98,-12.46
2012-04-29 15:00,30.50,133.4,8.53,22.17,-20.95
2012-04-29 16:00,21.41,194.6,8.43,-5.38,-20.72
2012-04-29 17:00,32.56,229.4,8.43,-24.71,-21.20
2012-04-29 18:00,105.29,276.5,6.84,-104.62,11.90
2012-04-29 19:00,81.83,287.7,6.81,-77.94,24.93
2012-04-29 20:00,65.41,297.2,6.97,-58.16,29.93
2012-04-29 21:00,37.25,319.7,7.60,-24.07,28.42
2012-04-29 22:00,14.08,21.2,8.11,5.10,13.12
2012-04-29 23:00,25.81,107.7,7.99,24.59,-7.86
2012-04-30 00:00,49.86,98.9,8.46,49.26,-7.74
2012-04-30 01:00,50.45,112.3,8.59,46.68,-19.14
2012-04-30 02:00,48.69,119.0,8.56,42.59,-23.58
2012-04-30 03:00,38.13,127.8,8.30,30.14,-23.35
2012-04-30 04:00,35.49,199.1,8.08,-11.63,-33.53
2012-04-30 05:00,42.24,221.6,7.76,-28.06,-31.56
2012-04-30 06:00,91.80,257.9,6.48,-89.75,-19.32
2012-04-30 07:00,70.98,271.9,6.55,-70.94,2.38
2012-04-30 08:00,53.97,282.5,6.77,-52.69,11.65
2012-04-30 09:00,31.97,297.6,7.13,-28.34,14.80
2012-04-30 10:00,6.75,340.5,7.64,-2.25,6.36
2012-04-30 11:00,17.30,89.8,7.83,17.30,0.06
2012-04-30 12:00,38.72,98.6,7.92,38.28,-5.78
2012-04-30 13:00,44.29,111.2,7.79,41.28,-16.04
2012-04-30 14:00,39.60,117.2,7.79,35.21,-18.11
2012-04-30 15:00,32.85,122.8,7.83,27.60,-17.81
2012-04-30 16:00,16.72,160.5,7.83,5.59,-15.76
2012-04-30 17:00,26.10,210.4,7.64,-13.20,-22.52
2012-04-30 18:00,46.34,245.5,7.54,-42.19,-19.18
2012-04-30 19:00,72.74,282.8,7.70,-70.93,16.14
2012-04-30 20:00,57.78,311.6,7.92,-43.17,38.40
2012-04-30 21:00,41.65,339.1,8.05,-14.88,38.90
2012-04-30 22:00,29.33,7.5,8.08,3.84,29.08
2012-04-30 23:00,23.46,58.8,7.99,20.08,12.14
2012-05-01 00:00,45.17,93.3,7.99,45.09,-2.60
2012-05-01 01:00,51.03,101.7,7.89,49.97,-10.39
2012-05-01 02:00,49.27,108.4,7.89,46.75,-15.57
2012-05-01 03:00,41.36,107.0,7.67,39.54,-12.10
2012-05-01 04:00,18.18,96.8,7.57,18.06,-2.16
2012-05-01 05:00,14.96,57.1,7.51,12.56,8.13
2012-05-01 06:00,10.56,236.4,7.51,-8.80,-5.84
2012-05-01 07:00,103.24,282.1,6.90,-100.94,21.67
2012-05-01 08:00,103.24,302.5,7.00,-87.07,55.48
2012-05-01 09:00,78.90,318.0,7.32,-52.82,58.61
2012-05-01 10:00,50.74,354.9,7.54,-4.55,50.54
2012-05-01 11:00,33.14,21.2,7.64,12.00,30.89
2012-05-01 12:00,29.92,60.3,7.70,25.97,14.84
2012-05-01 13:00,38.42,82.1,7.73,38.05,5.31
2012-05-01 14:00,43.99,94.4,7.70,43.87,-3.34
2012-05-01 15:00,39.60,88.4,7.73,39.58,1.12
2012-05-01 16:00,35.49,76.1,7.48,34.45,8.54
2012-05-01 17:00,23.76,59.9,7.41,20.55,11.91
2012-05-01 18:00,16.42,19.8,7.44,5.57,15.45
2012-05-01 19:00,12.32,314.8,7.48,-8.74,8.68
2012-05-01 20:00,30.80,302.2,7.44,-26.07,16.39
2012-05-01 21:00,37.84,300.7,7.60,-32.52,19.34
2012-05-01 22:00,22.29,304.3,7.67,-18.42,12.55
2012-05-01 23:00,0.88,133.0,7.51,0.64,-0.60
2012-05-02 00:00,13.20,163.3,7.51,3.80,-12.64
2012-05-02 01:00,31.38,136.2,7.48,21.72,-22.65
2012-05-02 02:00,20.24,154.8,7.48,8.61,-18.32
2012-05-02 03:00,15.25,153.4,7.60,6.82,-13.64
2012-05-02 04:00,3.52,118.6,7.60,3.09,-1.69
2012-05-02 05:00,9.09,296.2,7.54,-8.16,4.01
2012-05-02 06:00,25.22,322.9,7.57,-15.22,20.12
2012-05-02 07:00,24.64,296.2,7.57,-22.11,10.87
2012-05-02 08:00,141.37,301.5,7.25,-120.60,73.77
2012-05-02 09:00,116.44,312.0,7.13,-86.53,77.91
2012-05-02 10:00,85.35,325.7,7.41,-48.08,70.52
2012-05-02 11:00,53.38,352.4,7.64,-7.06,52.91
2012-05-02 12:00,30.50,57.8,7.51,25.81,16.26
2012-05-02 13:00,17.01,124.9,7.57,13.94,-9.75
2012-05-02 14:00,27.57,129.2,7.57,21.37,-17.41
2012-05-02 15:00,36.66,145.7,7.60,20.66,-30.28
2012-05-02 16:00,25.81,174.2,7.60,2.62,-25.68
2012-05-02 17:00,15.54,218.8,7.60,-9.75,-12.11
2012-05-02 18:00,33.73,263.1,7.60,-33.49,-4.04
2012-05-02 19:00,94.15,283.2,7.54,-91.67,21.45
2012-05-02 20:00,95.62,300.0,7.51,-82.77,47.87
2012-05-02 21:00,89.75,301.8,7.99,-76.27,47.30
2012-05-02 22:00,70.39,317.6,7.95,-47.44,52.00